World > North America > United States > New York

Hourly Waverly, NY Regional Weather

Feedback E-mail the Weather

Latest News

Waverly, NY Weather Maps

°F °C°F °C
Waverly Weather Map
UTC Time: 5/27/2022, 16:22
Your Time:

Waverly, NY Regional Weather

Expires:202205271700;;654525
ASUS41 KBGM 271610
RWRBGM

REGIONAL WEATHER ROUNDUP
NATIONAL WEATHER SERVICE BINGHAMTON NY
1200 PM EDT FRI MAY 27 2022

Note: "fair" indicates few or no clouds below 12,000 feet with no
significant weather and/or obstructions to visibility.

* = Station(s) that does not report precipitation, such as rain, 
snow, etc, also no thunder or fog.


NYZ009-015>018-022>025-036-037-044>046-055>057-062-271700
...Central New York...
  
CITY           SKY/WX    TMP DP  RH WIND       PRES   REMARKS
Binghamton     CLOUDY    66  62  87 S9        29.86F                  
Cortland       FAIR      72  63  73 S12G18    29.83F                  
Dansville      CLOUDY    68  64  87 W5        29.79F                  
Elmira         LGT RAIN  72  63  73 S8        29.80F                  
Ithaca         CLOUDY    71  64  78 S12       29.83F                  
Hamilton       CLOUDY    72  61  68 S7G21     29.85S                  
Monticello     CLOUDY    70  64  81 S10       29.92F                  
Norwich        CLOUDY    70  63  78 S9G16     29.87F                  
Oneonta        MOSUNNY   68  63  83 SW5       29.89F                  
Penn Yan       PTSUNNY   71  63  75 S9        29.80F                  
Rome           PTSUNNY   75  64  68 SW9       29.81F                  
Seneca Falls   DRIZZLE   72  64  78 SW9G16    29.80S                  
Sidney         PTSUNNY   72  64  78 S5        29.86F                  
Skaneateles    FAIR      72  68  88 VRB5G14   29.80F                  
Syracuse       CLOUDY    74  63  68 S12       29.79F                  
$$
 

SKY/WX - Weather  TMP - Temperature  DP - Dew Point  RH - Humidity
WIND - Wind Direction/Speed PRES - Barometric Pressure VSB - Visibility
WCI - Wind Chill Index E13G22 Wind - East Wind 13 mph/Gusts of 22 mph

Trending Headlines

Waverly Radar Loop



Waverly Quick Facts


National Two Day Weather Forecast


E-mail the Waverly Weather Forecast

Voice your opinion or tell us about page issues...